Time,TemperatureF,DewpointF,PressureIn,WindDirection,WindDirectionDegrees,WindSpeedMPH,WindSpeedGustMPH,Humidity,HourlyPrecipIn,Conditions,Clouds,dailyrainin,SoftwareType,DateUTC
2013-01-17 00:01:00,43.2,41.0,30.01,East,90,0.0,3.1,92,0.00,,,0.00,WUHU216HW,2013-01-17 05:01:00,
2013-01-17 00:02:00,43.2,41.0,30.01,SSE,158,0.4,3.1,92,0.00,,,0.00,WUHU216HW,2013-01-17 05:02:00,
2013-01-17 00:04:00,43.2,41.0,30.01,West,270,0.4,2.5,92,0.00,,,0.00,WUHU216HW,2013-01-17 05:04:00,
2013-01-17 00:09:00,43.2,41.0,30.01,ESE,113,1.3,2.0,92,0.00,,,0.00,WUHU216HW,2013-01-17 05:09:00,
2013-01-17 00:14:00,43.0,40.9,30.00,East,90,2.0,2.2,92,0.01,,,0.01,WUHU216HW,2013-01-17 05:14:00,
2013-01-17 00:19:00,43.0,41.1,30.00,NNE,23,1.1,2.2,93,0.01,,,0.01,WUHU216HW,2013-01-17 05:19:00,
2013-01-17 00:24:00,43.0,41.1,29.99,West,270,0.9,2.0,93,0.01,,,0.01,WUHU216HW,2013-01-17 05:24:00,
2013-01-17 00:29:00,43.0,41.1,30.00,NNW,338,1.1,3.6,93,0.01,,,0.01,WUHU216HW,2013-01-17 05:29:00,
2013-01-17 00:34:00,43.0,41.1,30.00,NNW,338,3.8,3.8,93,0.01,,,0.01,WUHU216HW,2013-01-17 05:34:00,
2013-01-17 00:39:00,43.0,41.1,30.01,North,0,2.7,4.0,93,0.01,,,0.01,WUHU216HW,2013-01-17 05:39:00,
2013-01-17 00:44:00,43.0,41.1,30.01,North,0,1.6,4.0,93,0.01,,,0.01,WUHU216HW,2013-01-17 05:44:00,
2013-01-17 00:49:00,43.0,41.1,30.01,NNW,338,0.9,2.7,93,0.01,,,0.01,WUHU216HW,2013-01-17 05:49:00,
2013-01-17 00:54:00,43.2,41.3,30.00,South,180,0.7,2.5,93,0.01,,,0.01,WUHU216HW,2013-01-17 05:54:00,
2013-01-17 00:59:00,43.2,41.3,30.00,NNW,338,0.0,2.0,93,0.01,,,0.01,WUHU216HW,2013-01-17 05:59:00,
2013-01-17 01:04:00,43.0,41.1,30.00,NNE,23,1.8,3.4,93,0.01,,,0.01,WUHU216HW,2013-01-17 06:04:00,
2013-01-17 01:09:00,43.0,41.1,30.01,NNW,338,1.1,4.5,93,0.00,,,0.01,WUHU216HW,2013-01-17 06:09:00,
2013-01-17 01:14:00,43.2,41.3,30.02,NW,315,1.1,4.5,93,0.00,,,0.01,WUHU216HW,2013-01-17 06:14:00,
2013-01-17 01:19:00,43.2,41.3,30.01,NNW,338,0.9,3.4,93,0.00,,,0.01,WUHU216HW,2013-01-17 06:19:00,
2013-01-17 01:24:00,43.2,41.3,30.01,NNW,338,0.2,3.4,93,0.00,,,0.01,WUHU216HW,2013-01-17 06:24:00,
2013-01-17 01:29:00,43.2,41.3,30.01,North,0,2.0,2.5,93,0.00,,,0.01,WUHU216HW,2013-01-17 06:29:00,
2013-01-17 01:34:00,43.4,41.5,30.01,North,0,3.4,3.4,93,0.00,,,0.01,WUHU216HW,2013-01-17 06:34:00,
2013-01-17 01:39:00,43.4,41.5,30.00,East,90,1.1,3.4,93,0.00,,,0.01,WUHU216HW,2013-01-17 06:39:00,
2013-01-17 01:44:00,43.4,41.5,29.99,East,90,1.6,3.4,93,0.01,,,0.02,WUHU216HW,2013-01-17 06:44:00,
2013-01-17 01:49:00,43.4,41.5,29.99,ENE,68,1.1,2.5,93,0.01,,,0.02,WUHU216HW,2013-01-17 06:49:00,
2013-01-17 01:54:00,43.4,41.5,29.99,NNE,23,1.6,2.2,93,0.01,,,0.02,WUHU216HW,2013-01-17 06:54:00,
2013-01-17 02:02:00,43.4,41.5,29.99,North,0,0.4,3.4,93,0.01,,,0.02,WUHU216HW,2013-01-17 07:02:00,
2013-01-17 02:07:00,43.6,41.7,30.00,NE,45,0.0,4.3,93,0.01,,,0.02,WUHU216HW,2013-01-17 07:07:00,
2013-01-17 02:12:00,43.6,41.7,29.99,NW,315,3.4,4.3,93,0.01,,,0.02,WUHU216HW,2013-01-17 07:12:00,
2013-01-17 02:17:00,43.6,41.7,29.99,NNW,338,1.1,4.7,93,0.01,,,0.02,WUHU216HW,2013-01-17 07:17:00,
2013-01-17 02:22:00,43.6,41.7,30.00,NW,315,3.4,4.9,93,0.01,,,0.02,WUHU216HW,2013-01-17 07:22:00,
2013-01-17 02:27:00,43.6,41.7,30.00,NNE,23,1.6,4.9,93,0.01,,,0.02,WUHU216HW,2013-01-17 07:27:00,
2013-01-17 02:32:00,43.6,41.7,29.98,NW,315,2.2,3.4,93,0.01,,,0.02,WUHU216HW,2013-01-17 07:32:00,
2013-01-17 02:37:00,43.6,41.7,29.99,NW,315,1.6,5.4,93,0.01,,,0.02,WUHU216HW,2013-01-17 07:37:00,
2013-01-17 02:42:00,43.6,41.7,30.00,NW,315,2.2,5.4,93,0.00,,,0.02,WUHU216HW,2013-01-17 07:42:00,
2013-01-17 02:47:00,43.7,41.9,30.00,NW,315,1.3,4.9,93,0.00,,,0.02,WUHU216HW,2013-01-17 07:47:00,
2013-01-17 02:52:00,43.7,41.9,29.99,North,0,0.7,4.9,93,0.00,,,0.02,WUHU216HW,2013-01-17 07:52:00,
2013-01-17 02:57:00,43.7,41.9,29.98,NNE,23,1.1,3.6,93,0.01,,,0.03,WUHU216HW,2013-01-17 07:57:00,
2013-01-17 03:02:00,43.6,41.7,29.97,ESE,113,0.9,2.5,93,0.01,,,0.03,WUHU216HW,2013-01-17 08:02:00,
2013-01-17 03:07:00,43.6,41.7,29.97,North,0,1.1,2.5,93,0.01,,,0.03,WUHU216HW,2013-01-17 08:07:00,
2013-01-17 03:12:00,43.6,41.7,29.98,East,90,1.1,2.5,93,0.01,,,0.03,WUHU216HW,2013-01-17 08:12:00,
2013-01-17 03:17:00,43.6,41.7,29.97,NNE,23,1.6,2.5,93,0.01,,,0.03,WUHU216HW,2013-01-17 08:17:00,
2013-01-17 03:22:00,43.6,41.7,29.97,North,0,1.6,2.7,93,0.01,,,0.03,WUHU216HW,2013-01-17 08:22:00,
2013-01-17 03:27:00,43.7,41.9,29.97,NNW,338,0.7,3.4,93,0.01,,,0.03,WUHU216HW,2013-01-17 08:27:00,
2013-01-17 03:32:00,43.7,41.9,29.97,NE,45,1.8,3.4,93,0.01,,,0.03,WUHU216HW,2013-01-17 08:32:00,
2013-01-17 03:37:00,43.7,41.9,29.96,NNE,23,0.4,3.6,93,0.01,,,0.03,WUHU216HW,2013-01-17 08:37:00,
2013-01-17 03:43:00,43.7,41.9,29.96,North,0,3.1,4.3,93,0.01,,,0.03,WUHU216HW,2013-01-17 08:43:00,
2013-01-17 03:48:00,43.7,41.9,29.96,NNW,338,0.7,4.3,93,0.01,,,0.03,WUHU216HW,2013-01-17 08:48:00,
2013-01-17 03:53:00,43.7,41.9,29.96,NNW,338,1.8,2.5,93,0.01,,,0.03,WUHU216HW,2013-01-17 08:53:00,
2013-01-17 03:58:00,43.7,41.9,29.95,NNE,23,1.6,4.0,93,0.00,,,0.03,WUHU216HW,2013-01-17 08:58:00,
2013-01-17 04:03:00,43.7,41.9,29.95,NE,45,1.3,4.0,93,0.00,,,0.03,WUHU216HW,2013-01-17 09:03:00,
2013-01-17 04:08:00,43.7,41.9,29.95,NNW,338,3.4,4.0,93,0.00,,,0.03,WUHU216HW,2013-01-17 09:08:00,
2013-01-17 04:13:00,43.7,41.9,29.95,NNW,338,2.5,3.4,93,0.00,,,0.03,WUHU216HW,2013-01-17 09:13:00,
2013-01-17 04:18:00,43.7,41.9,29.95,North,0,3.4,4.9,93,0.00,,,0.03,WUHU216HW,2013-01-17 09:18:00,
2013-01-17 04:23:00,43.9,42.0,29.95,South,180,1.1,5.4,93,0.00,,,0.03,WUHU216HW,2013-01-17 09:23:00,
2013-01-17 04:28:00,43.7,41.9,29.97,NW,315,2.2,6.0,93,0.00,,,0.03,WUHU216HW,2013-01-17 09:28:00,
2013-01-17 04:33:00,43.9,42.0,29.95,North,0,1.6,6.0,93,0.00,,,0.03,WUHU216HW,2013-01-17 09:33:00,
2013-01-17 04:38:00,43.9,42.0,29.94,NNE,23,2.5,4.5,93,0.00,,,0.03,WUHU216HW,2013-01-17 09:38:00,
2013-01-17 04:43:00,43.7,41.6,29.95,NE,45,2.5,6.3,92,0.00,,,0.03,WUHU216HW,2013-01-17 09:43:00,
2013-01-17 04:48:00,43.7,41.6,29.95,NW,315,2.5,6.3,92,0.00,,,0.03,WUHU216HW,2013-01-17 09:48:00,
2013-01-17 04:53:00,43.7,41.6,29.95,North,0,6.3,6.3,92,0.00,,,0.03,WUHU216HW,2013-01-17 09:53:00,
2013-01-17 04:58:00,43.6,41.1,29.95,NNE,23,4.0,9.2,91,0.00,,,0.03,WUHU216HW,2013-01-17 09:58:00,
2013-01-17 05:03:00,43.6,41.4,29.95,East,90,3.4,9.2,92,0.00,,,0.03,WUHU216HW,2013-01-17 10:03:00,
2013-01-17 05:08:00,43.6,41.4,29.94,East,90,2.5,6.0,92,0.00,,,0.03,WUHU216HW,2013-01-17 10:08:00,
2013-01-17 05:13:00,43.6,41.4,29.94,North,0,1.6,6.0,92,0.00,,,0.03,WUHU216HW,2013-01-17 10:13:00,
2013-01-17 05:18:00,43.4,41.2,29.94,NNE,23,2.7,6.3,92,0.00,,,0.03,WUHU216HW,2013-01-17 10:18:00,
2013-01-17 05:23:00,43.4,41.2,29.94,NE,45,3.8,6.3,92,0.01,,,0.04,WUHU216HW,2013-01-17 10:23:00,
2013-01-17 05:28:00,43.2,41.0,29.94,North,0,4.3,6.0,92,0.01,,,0.04,WUHU216HW,2013-01-17 10:28:00,
2013-01-17 05:33:00,43.2,41.0,29.94,North,0,2.2,5.4,92,0.01,,,0.04,WUHU216HW,2013-01-17 10:33:00,
2013-01-17 05:38:00,43.0,41.1,29.94,NNE,23,1.8,4.7,93,0.01,,,0.04,WUHU216HW,2013-01-17 10:38:00,
2013-01-17 05:43:00,43.0,40.9,29.94,NNE,23,6.9,6.9,92,0.01,,,0.04,WUHU216HW,2013-01-17 10:43:00,
2013-01-17 05:48:00,42.8,40.7,29.93,ESE,113,1.1,8.3,92,0.01,,,0.04,WUHU216HW,2013-01-17 10:48:00,
2013-01-17 05:53:00,42.8,40.7,29.93,North,0,4.0,8.3,92,0.01,,,0.04,WUHU216HW,2013-01-17 10:53:00,
2013-01-17 05:58:00,42.8,40.7,29.93,SSW,203,3.4,7.8,92,0.01,,,0.04,WUHU216HW,2013-01-17 10:58:00,
2013-01-17 06:03:00,42.8,40.4,29.93,NE,45,3.4,7.8,91,0.01,,,0.04,WUHU216HW,2013-01-17 11:03:00,
2013-01-17 06:08:00,42.7,40.2,29.93,NE,45,1.3,7.8,91,0.01,,,0.04,WUHU216HW,2013-01-17 11:08:00,
2013-01-17 06:13:00,42.7,40.0,29.93,North,0,6.5,7.6,90,0.01,,,0.04,WUHU216HW,2013-01-17 11:13:00,
2013-01-17 06:18:00,42.7,40.0,29.93,SE,135,3.1,7.6,90,0.02,,,0.05,WUHU216HW,2013-01-17 11:18:00,
2013-01-17 06:23:00,42.5,39.8,29.93,SE,135,0.4,6.5,90,0.01,,,0.05,WUHU216HW,2013-01-17 11:23:00,
2013-01-17 06:28:00,42.3,39.6,29.93,North,0,3.1,6.5,90,0.01,,,0.05,WUHU216HW,2013-01-17 11:28:00,
2013-01-17 06:33:00,42.1,39.4,29.92,East,90,7.2,7.2,90,0.01,,,0.05,WUHU216HW,2013-01-17 11:33:00,
2013-01-17 06:38:00,42.1,39.4,29.93,SE,135,3.4,7.2,90,0.01,,,0.05,WUHU216HW,2013-01-17 11:38:00,
2013-01-17 06:43:00,41.9,39.2,29.93,NNE,23,0.7,7.2,90,0.01,,,0.05,WUHU216HW,2013-01-17 11:43:00,
2013-01-17 06:48:00,41.9,39.2,29.92,East,90,4.0,5.4,90,0.01,,,0.05,WUHU216HW,2013-01-17 11:48:00,
2013-01-17 06:53:00,41.9,39.2,29.92,WSW,248,4.3,5.4,90,0.01,,,0.05,WUHU216HW,2013-01-17 11:53:00,
2013-01-17 06:58:00,41.8,39.1,29.92,ENE,68,1.1,6.3,90,0.01,,,0.05,WUHU216HW,2013-01-17 11:58:00,
2013-01-17 07:03:00,41.8,39.1,29.92,NNW,338,3.4,6.3,90,0.01,,,0.05,WUHU216HW,2013-01-17 12:03:00,
2013-01-17 07:08:00,41.8,39.1,29.93,North,0,0.9,8.9,90,0.01,,,0.05,WUHU216HW,2013-01-17 12:08:00,
2013-01-17 07:13:00,41.8,39.1,29.94,NE,45,1.1,8.9,90,0.01,,,0.05,WUHU216HW,2013-01-17 12:13:00,
2013-01-17 07:18:00,41.8,39.1,29.93,North,0,1.1,6.3,90,0.00,,,0.05,WUHU216HW,2013-01-17 12:18:00,
2013-01-17 07:23:00,41.8,39.1,29.94,East,90,3.1,6.9,90,0.00,,,0.05,WUHU216HW,2013-01-17 12:23:00,
2013-01-17 07:28:00,41.8,39.1,29.94,NNW,338,3.6,6.9,90,0.00,,,0.05,WUHU216HW,2013-01-17 12:28:00,
2013-01-17 07:33:00,41.8,39.1,29.94,North,0,2.5,4.7,90,0.00,,,0.05,WUHU216HW,2013-01-17 12:33:00,
2013-01-17 07:38:00,41.6,38.9,29.93,WSW,248,0.7,4.9,90,0.00,,,0.05,WUHU216HW,2013-01-17 12:38:00,
2013-01-17 07:43:00,41.6,38.6,29.92,ESE,113,2.2,8.3,89,0.00,,,0.05,WUHU216HW,2013-01-17 12:43:00,
2013-01-17 07:48:00,41.4,38.4,29.93,NNW,338,1.6,8.3,89,0.01,,,0.06,WUHU216HW,2013-01-17 12:48:00,
2013-01-17 07:53:00,41.4,38.7,29.92,NNW,338,2.5,6.5,90,0.01,,,0.06,WUHU216HW,2013-01-17 12:53:00,
2013-01-17 07:58:00,41.4,38.7,29.92,NNW,338,2.5,5.4,90,0.01,,,0.06,WUHU216HW,2013-01-17 12:58:00,
2013-01-17 08:03:00,41.2,38.3,29.93,NW,315,2.9,6.0,89,0.01,,,0.06,WUHU216HW,2013-01-17 13:03:00,
2013-01-17 08:08:00,41.0,38.1,29.92,SE,135,2.0,6.0,89,0.01,,,0.06,WUHU216HW,2013-01-17 13:08:00,
2013-01-17 08:13:00,41.0,38.1,29.93,NNW,338,1.1,7.4,89,0.01,,,0.06,WUHU216HW,2013-01-17 13:13:00,
2013-01-17 08:18:00,40.9,37.9,29.93,NNW,338,1.8,7.4,89,0.01,,,0.06,WUHU216HW,2013-01-17 13:18:00,
2013-01-17 08:23:00,40.7,37.4,29.93,NNE,23,4.9,6.3,88,0.01,,,0.06,WUHU216HW,2013-01-17 13:23:00,
2013-01-17 08:28:00,40.7,37.4,29.93,South,180,1.8,6.0,88,0.01,,,0.06,WUHU216HW,2013-01-17 13:28:00,
2013-01-17 08:33:00,40.7,37.7,29.93,North,0,4.0,5.1,89,0.02,,,0.07,WUHU216HW,2013-01-17 13:33:00,
2013-01-17 08:38:00,40.3,37.4,29.93,NNW,338,0.7,6.3,89,0.04,,,0.09,WUHU216HW,2013-01-17 13:38:00,
2013-01-17 08:43:00,40.3,37.4,29.94,NNW,338,1.3,6.3,89,0.05,,,0.10,WUHU216HW,2013-01-17 13:43:00,
2013-01-17 08:48:00,40.3,37.6,29.93,North,0,2.5,5.1,90,0.06,,,0.12,WUHU216HW,2013-01-17 13:48:00,
2013-01-17 08:53:00,40.1,37.4,29.92,NE,45,2.0,5.6,90,0.06,,,0.12,WUHU216HW,2013-01-17 13:53:00,
2013-01-17 08:58:00,40.0,37.3,29.92,NNW,338,2.9,5.8,90,0.06,,,0.12,WUHU216HW,2013-01-17 13:58:00,
2013-01-17 09:03:00,40.0,37.5,29.92,NNW,338,2.5,5.8,91,0.07,,,0.13,WUHU216HW,2013-01-17 14:03:00,
2013-01-17 09:08:00,40.0,37.5,29.92,NNE,23,2.9,4.9,91,0.07,,,0.13,WUHU216HW,2013-01-17 14:08:00,
2013-01-17 09:13:00,40.0,37.5,29.92,North,0,1.8,5.4,91,0.07,,,0.13,WUHU216HW,2013-01-17 14:13:00,
2013-01-17 09:18:00,40.0,37.5,29.92,North,0,3.1,5.4,91,0.07,,,0.13,WUHU216HW,2013-01-17 14:18:00,
2013-01-17 09:23:00,40.0,37.5,29.91,NE,45,4.0,4.5,91,0.07,,,0.13,WUHU216HW,2013-01-17 14:23:00,
2013-01-17 09:28:00,40.0,37.5,29.91,East,90,1.8,7.6,91,0.06,,,0.13,WUHU216HW,2013-01-17 14:28:00,
2013-01-17 09:33:00,39.8,37.4,29.91,East,90,6.3,7.6,91,0.05,,,0.13,WUHU216HW,2013-01-17 14:33:00,
2013-01-17 09:38:00,39.8,37.4,29.88,NNE,23,3.1,8.3,91,0.04,,,0.13,WUHU216HW,2013-01-17 14:38:00,
2013-01-17 09:43:00,39.8,37.4,29.88,North,0,5.6,8.3,91,0.03,,,0.13,WUHU216HW,2013-01-17 14:43:00,
2013-01-17 09:48:00,39.6,37.2,29.88,North,0,4.7,6.3,91,0.01,,,0.13,WUHU216HW,2013-01-17 14:48:00,
2013-01-17 09:53:00,39.6,37.2,29.88,NNW,338,3.4,6.3,91,0.01,,,0.13,WUHU216HW,2013-01-17 14:53:00,
2013-01-17 09:58:00,39.6,37.4,29.89,ESE,113,2.7,5.6,92,0.01,,,0.13,WUHU216HW,2013-01-17 14:58:00,
2013-01-17 10:03:00,39.6,37.4,29.89,NE,45,4.7,6.3,92,0.00,,,0.13,WUHU216HW,2013-01-17 15:03:00,
2013-01-17 10:08:00,39.6,37.4,29.87,North,0,2.2,6.3,92,0.00,,,0.13,WUHU216HW,2013-01-17 15:08:00,
2013-01-17 10:13:00,39.8,37.6,29.87,NNW,338,4.9,6.3,92,0.00,,,0.13,WUHU216HW,2013-01-17 15:13:00,
2013-01-17 10:18:00,39.8,37.6,29.88,NNW,338,1.6,5.8,92,0.00,,,0.13,WUHU216HW,2013-01-17 15:18:00,
2013-01-17 10:23:00,40.0,37.8,29.89,NW,315,1.8,4.9,92,0.00,,,0.13,WUHU216HW,2013-01-17 15:23:00,
2013-01-17 10:28:00,40.0,37.8,29.87,North,0,5.1,5.6,92,0.00,,,0.13,WUHU216HW,2013-01-17 15:28:00,
2013-01-17 10:33:00,40.0,37.8,29.86,North,0,2.2,5.8,92,0.00,,,0.13,WUHU216HW,2013-01-17 15:33:00,
2013-01-17 10:38:00,40.3,38.2,29.87,North,0,1.1,5.8,92,0.00,,,0.13,WUHU216HW,2013-01-17 15:38:00,
2013-01-17 10:43:00,40.5,38.6,29.87,NNE,23,4.3,4.7,93,0.00,,,0.13,WUHU216HW,2013-01-17 15:43:00,
2013-01-17 10:48:00,40.7,38.5,29.87,North,0,2.5,6.3,92,0.00,,,0.13,WUHU216HW,2013-01-17 15:48:00,
2013-01-17 10:53:00,40.7,38.5,29.86,North,0,2.7,6.3,92,0.00,,,0.13,WUHU216HW,2013-01-17 15:53:00,
2013-01-17 10:58:00,40.7,38.5,29.86,ESE,113,2.5,5.8,92,0.00,,,0.13,WUHU216HW,2013-01-17 15:58:00,
2013-01-17 11:03:00,40.7,38.5,29.85,NNE,23,2.5,5.1,92,0.00,,,0.13,WUHU216HW,2013-01-17 16:03:00,
2013-01-17 11:08:00,40.9,38.7,29.83,ENE,68,4.0,5.1,92,0.00,,,0.13,WUHU216HW,2013-01-17 16:08:00,
2013-01-17 11:13:00,40.9,38.7,29.82,NNE,23,2.2,6.7,92,0.00,,,0.13,WUHU216HW,2013-01-17 16:13:00,
2013-01-17 11:18:00,40.9,38.7,29.82,North,0,3.4,6.7,92,0.00,,,0.13,WUHU216HW,2013-01-17 16:18:00,
2013-01-17 11:23:00,41.0,38.9,29.81,NNW,338,1.8,6.5,92,0.00,,,0.13,WUHU216HW,2013-01-17 16:23:00,
2013-01-17 11:28:00,41.2,39.1,29.81,NW,315,2.5,5.1,92,0.00,,,0.13,WUHU216HW,2013-01-17 16:28:00,
2013-01-17 11:33:00,41.4,39.0,29.82,NNE,23,9.2,9.8,91,0.00,,,0.13,WUHU216HW,2013-01-17 16:33:00,
2013-01-17 11:38:00,41.2,38.8,29.81,WNW,293,6.3,11.2,91,0.00,,,0.13,WUHU216HW,2013-01-17 16:38:00,
2013-01-17 11:43:00,41.0,38.6,29.80,North,0,1.8,11.2,91,0.00,,,0.13,WUHU216HW,2013-01-17 16:43:00,
2013-01-17 11:48:00,41.0,38.6,29.81,ENE,68,5.1,7.6,91,0.00,,,0.13,WUHU216HW,2013-01-17 16:48:00,
2013-01-17 11:53:00,40.9,38.2,29.81,WNW,293,2.7,7.6,90,0.00,,,0.13,WUHU216HW,2013-01-17 16:53:00,
2013-01-17 11:58:00,40.7,38.3,29.81,North,0,3.8,7.6,91,0.00,,,0.13,WUHU216HW,2013-01-17 16:58:00,
2013-01-17 12:03:00,40.7,38.0,29.80,North,0,4.5,9.6,90,0.00,,,0.13,WUHU216HW,2013-01-17 17:03:00,
2013-01-17 12:08:00,40.7,38.0,29.80,ENE,68,2.9,11.0,90,0.00,,,0.13,WUHU216HW,2013-01-17 17:08:00,
2013-01-17 12:13:00,40.5,38.1,29.79,North,0,6.9,11.0,91,0.00,,,0.13,WUHU216HW,2013-01-17 17:13:00,
2013-01-17 12:18:00,40.5,37.8,29.79,North,0,8.1,13.0,90,0.00,,,0.13,WUHU216HW,2013-01-17 17:18:00,
2013-01-17 12:23:00,40.3,37.6,29.78,NNE,23,6.0,13.0,90,0.00,,,0.13,WUHU216HW,2013-01-17 17:23:00,
2013-01-17 12:28:00,40.3,37.6,29.78,North,0,4.7,12.1,90,0.00,,,0.13,WUHU216HW,2013-01-17 17:28:00,
2013-01-17 12:33:00,40.3,37.6,29.77,North,0,4.7,12.1,90,0.00,,,0.13,WUHU216HW,2013-01-17 17:33:00,
2013-01-17 12:38:00,40.3,37.6,29.75,ENE,68,4.0,11.2,90,0.00,,,0.13,WUHU216HW,2013-01-17 17:38:00,
2013-01-17 12:43:00,40.3,37.6,29.74,NE,45,10.3,11.4,90,0.00,,,0.13,WUHU216HW,2013-01-17 17:43:00,
2013-01-17 12:48:00,40.3,37.6,29.73,North,0,4.9,15.7,90,0.00,,,0.13,WUHU216HW,2013-01-17 17:48:00,
2013-01-17 12:53:00,40.3,37.6,29.74,ESE,113,2.9,15.7,90,0.00,,,0.13,WUHU216HW,2013-01-17 17:53:00,
2013-01-17 12:58:00,40.3,37.6,29.74,North,0,10.5,10.5,90,0.00,,,0.13,WUHU216HW,2013-01-17 17:58:00,
2013-01-17 13:03:00,40.3,37.6,29.75,NNW,338,3.8,11.2,90,0.00,,,0.13,WUHU216HW,2013-01-17 18:03:00,
2013-01-17 13:08:00,40.5,37.8,29.75,NNW,338,2.9,11.2,90,0.00,,,0.13,WUHU216HW,2013-01-17 18:08:00,
2013-01-17 13:13:00,40.7,37.7,29.76,NE,45,7.2,12.1,89,0.00,,,0.13,WUHU216HW,2013-01-17 18:13:00,
2013-01-17 13:18:00,40.7,37.4,29.77,NNE,23,10.7,13.9,88,0.00,,,0.13,WUHU216HW,2013-01-17 18:18:00,
2013-01-17 13:23:00,40.7,37.7,29.76,West,270,3.6,13.9,89,0.00,,,0.13,WUHU216HW,2013-01-17 18:23:00,
2013-01-17 13:28:00,40.9,37.3,29.76,NNW,338,13.4,19.2,87,0.00,,,0.13,WUHU216HW,2013-01-17 18:28:00,
2013-01-17 13:33:00,40.9,37.3,29.77,NW,315,8.5,19.2,87,0.00,,,0.13,WUHU216HW,2013-01-17 18:33:00,
2013-01-17 13:38:00,41.0,37.1,29.78,SE,135,4.0,13.4,86,0.00,,,0.13,WUHU216HW,2013-01-17 18:38:00,
2013-01-17 13:43:00,41.2,37.3,29.77,NE,45,7.6,10.1,86,0.00,,,0.13,WUHU216HW,2013-01-17 18:43:00,
2013-01-17 13:48:00,41.4,37.8,29.78,NNE,23,2.7,9.6,87,0.01,,,0.14,WUHU216HW,2013-01-17 18:48:00,
2013-01-17 13:53:00,41.4,37.8,29.79,WNW,293,3.4,7.6,87,0.01,,,0.14,WUHU216HW,2013-01-17 18:53:00,
2013-01-17 13:58:00,41.6,38.0,29.80,SW,225,1.6,4.7,87,0.03,,,0.16,WUHU216HW,2013-01-17 18:58:00,
2013-01-17 14:03:00,41.6,38.0,29.82,SW,225,0.2,4.0,87,0.05,,,0.18,WUHU216HW,2013-01-17 19:03:00,
2013-01-17 14:08:00,41.6,38.3,29.82,NNW,338,3.4,5.4,88,0.05,,,0.18,WUHU216HW,2013-01-17 19:08:00,
2013-01-17 14:13:00,41.6,38.3,29.82,NNW,338,3.1,6.3,88,0.05,,,0.18,WUHU216HW,2013-01-17 19:13:00,
2013-01-17 14:18:00,41.4,37.8,29.82,North,0,9.8,9.8,87,0.06,,,0.19,WUHU216HW,2013-01-17 19:18:00,
2013-01-17 14:23:00,41.2,37.9,29.80,North,0,6.9,9.8,88,0.06,,,0.19,WUHU216HW,2013-01-17 19:23:00,
2013-01-17 14:28:00,41.0,37.7,29.80,North,0,7.4,9.8,88,0.07,,,0.20,WUHU216HW,2013-01-17 19:28:00,
2013-01-17 14:33:00,40.9,37.9,29.80,NNE,23,8.7,8.7,89,0.07,,,0.20,WUHU216HW,2013-01-17 19:33:00,
2013-01-17 14:38:00,40.9,37.9,29.80,NNE,23,6.9,14.1,89,0.08,,,0.21,WUHU216HW,2013-01-17 19:38:00,
2013-01-17 14:43:00,40.9,38.2,29.80,NNE,23,2.5,14.1,90,0.09,,,0.23,WUHU216HW,2013-01-17 19:43:00,
2013-01-17 14:48:00,40.9,38.2,29.80,North,0,6.3,7.6,90,0.10,,,0.25,WUHU216HW,2013-01-17 19:48:00,
2013-01-17 14:53:00,40.7,37.7,29.81,NNW,338,2.9,7.2,89,0.10,,,0.25,WUHU216HW,2013-01-17 19:53:00,
2013-01-17 14:58:00,40.7,37.7,29.81,North,0,3.1,7.6,89,0.08,,,0.25,WUHU216HW,2013-01-17 19:58:00,
2013-01-17 15:03:00,40.7,37.7,29.81,North,0,3.4,7.6,89,0.07,,,0.25,WUHU216HW,2013-01-17 20:03:00,
2013-01-17 15:08:00,40.5,37.2,29.81,NNE,23,6.3,7.6,88,0.07,,,0.25,WUHU216HW,2013-01-17 20:08:00,
2013-01-17 15:13:00,40.5,37.2,29.81,NNE,23,7.8,9.6,88,0.07,,,0.25,WUHU216HW,2013-01-17 20:13:00,
2013-01-17 15:18:00,40.5,37.2,29.81,NNW,338,1.6,11.2,88,0.06,,,0.25,WUHU216HW,2013-01-17 20:18:00,
2013-01-17 15:24:00,40.5,36.9,29.82,North,0,2.5,11.2,87,0.06,,,0.25,WUHU216HW,2013-01-17 20:24:00,
2013-01-17 15:29:00,40.3,36.7,29.83,NW,315,3.6,9.8,87,0.05,,,0.25,WUHU216HW,2013-01-17 20:29:00,
2013-01-17 15:34:00,40.3,36.7,29.84,WNW,293,5.4,10.1,87,0.05,,,0.25,WUHU216HW,2013-01-17 20:34:00,
2013-01-17 15:39:00,40.1,36.5,29.85,NNW,338,4.7,11.4,87,0.04,,,0.25,WUHU216HW,2013-01-17 20:39:00,
2013-01-17 15:44:00,40.1,36.5,29.85,North,0,9.8,11.4,87,0.03,,,0.25,WUHU216HW,2013-01-17 20:44:00,
2013-01-17 15:49:00,40.0,36.4,29.86,NNW,338,4.9,10.1,87,0.02,,,0.27,WUHU216HW,2013-01-17 20:49:00,
2013-01-17 15:54:00,40.0,36.4,29.86,North,0,8.7,10.1,87,0.02,,,0.27,WUHU216HW,2013-01-17 20:54:00,
2013-01-17 15:59:00,40.0,36.4,29.87,NNW,338,9.4,10.1,87,0.02,,,0.27,WUHU216HW,2013-01-17 20:59:00,
2013-01-17 16:04:00,39.8,36.5,29.88,North,0,6.5,9.4,88,0.01,,,0.27,WUHU216HW,2013-01-17 21:04:00,
2013-01-17 16:09:00,39.4,35.8,29.89,NNW,338,12.8,16.8,87,0.02,,,0.28,WUHU216HW,2013-01-17 21:09:00,
2013-01-17 16:14:00,39.2,35.6,29.89,WNW,293,15.2,16.8,87,0.02,,,0.28,WUHU216HW,2013-01-17 21:14:00,
2013-01-17 16:19:00,39.1,35.8,29.90,North,0,7.6,15.7,88,0.02,,,0.28,WUHU216HW,2013-01-17 21:19:00,
2013-01-17 16:24:00,39.1,36.1,29.91,NNW,338,3.8,15.7,89,0.02,,,0.28,WUHU216HW,2013-01-17 21:24:00,
2013-01-17 16:29:00,38.9,35.9,29.92,ENE,68,5.1,11.9,89,0.03,,,0.28,WUHU216HW,2013-01-17 21:29:00,
2013-01-17 16:34:00,38.7,35.7,29.92,ENE,68,10.1,13.4,89,0.04,,,0.30,WUHU216HW,2013-01-17 21:34:00,
2013-01-17 16:39:00,38.3,35.4,29.94,NNW,338,9.8,13.4,89,0.06,,,0.32,WUHU216HW,2013-01-17 21:39:00,
2013-01-17 16:44:00,38.0,35.3,29.94,NW,315,4.9,12.1,90,0.06,,,0.32,WUHU216HW,2013-01-17 21:44:00,
2013-01-17 16:49:00,38.0,35.3,29.95,NNW,338,4.7,12.1,90,0.06,,,0.32,WUHU216HW,2013-01-17 21:49:00,
2013-01-17 16:54:00,38.0,35.3,29.96,North,0,7.8,11.2,90,0.07,,,0.34,WUHU216HW,2013-01-17 21:54:00,
2013-01-17 16:59:00,38.0,35.3,29.96,NNW,338,9.2,11.6,90,0.08,,,0.34,WUHU216HW,2013-01-17 21:59:00,
2013-01-17 17:04:00,38.2,35.7,29.97,NNW,338,5.4,12.1,91,0.08,,,0.35,WUHU216HW,2013-01-17 22:04:00,
2013-01-17 17:08:00,38.3,35.6,29.97,West,270,4.0,12.1,90,0.07,,,0.35,WUHU216HW,2013-01-17 22:08:00,
2013-01-17 17:14:00,38.5,35.8,29.99,NNW,338,5.8,12.1,90,0.07,,,0.35,WUHU216HW,2013-01-17 22:14:00,
2013-01-17 17:18:00,38.5,35.8,30.00,NW,315,7.4,12.1,90,0.07,,,0.35,WUHU216HW,2013-01-17 22:18:00,
2013-01-17 17:24:00,38.5,35.8,30.01,North,0,5.4,11.0,90,0.07,,,0.35,WUHU216HW,2013-01-17 22:24:00,
2013-01-17 17:29:00,38.7,35.7,30.02,NW,315,4.7,8.9,89,0.06,,,0.35,WUHU216HW,2013-01-17 22:29:00,
2013-01-17 17:34:00,38.9,35.7,30.03,NNW,338,5.8,10.5,88,0.04,,,0.35,WUHU216HW,2013-01-17 22:34:00,
2013-01-17 17:39:00,38.9,35.9,30.03,NW,315,6.0,10.5,89,0.03,,,0.35,WUHU216HW,2013-01-17 22:39:00,
2013-01-17 17:44:00,38.9,35.9,30.04,NNW,338,4.0,7.4,89,0.02,,,0.35,WUHU216HW,2013-01-17 22:44:00,
2013-01-17 17:49:00,38.9,35.7,30.05,NW,315,8.5,8.5,88,0.01,,,0.35,WUHU216HW,2013-01-17 22:49:00,
2013-01-17 17:54:00,38.9,35.7,30.06,North,0,4.0,8.5,88,0.01,,,0.35,WUHU216HW,2013-01-17 22:54:00,
2013-01-17 21:44:00,38.2,31.6,30.24,NNW,338,0.4,0.4,77,0.00,,,0.35,WUHU216HW,2013-01-18 02:44:00,
2013-01-17 21:49:00,38.2,31.6,30.24,North,0,3.1,3.1,77,0.00,,,0.35,WUHU216HW,2013-01-18 02:49:00,
2013-01-17 21:54:00,38.2,31.6,30.25,ENE,68,1.6,3.1,77,0.00,,,0.35,WUHU216HW,2013-01-18 02:54:00,
2013-01-17 21:59:00,38.0,31.1,30.25,West,270,1.8,4.0,76,0.00,,,0.35,WUHU216HW,2013-01-18 02:59:00,
2013-01-17 22:04:00,38.0,31.1,30.25,NNE,23,3.1,4.0,76,0.00,,,0.35,WUHU216HW,2013-01-18 03:04:00,
2013-01-17 22:09:00,38.0,31.4,30.25,NNW,338,0.4,3.1,77,0.00,,,0.35,WUHU216HW,2013-01-18 03:09:00,
2013-01-17 22:14:00,37.8,31.2,30.26,North,0,0.4,3.1,77,0.00,,,0.35,WUHU216HW,2013-01-18 03:14:00,
2013-01-17 22:19:00,37.8,31.2,30.26,North,0,0.0,1.8,77,0.00,,,0.35,WUHU216HW,2013-01-18 03:19:00,
2013-01-17 22:24:00,37.6,31.1,30.26,North,0,0.4,1.8,77,0.00,,,0.35,WUHU216HW,2013-01-18 03:24:00,
2013-01-17 22:29:00,37.4,30.9,30.26,NW,315,1.6,3.4,77,0.00,,,0.35,WUHU216HW,2013-01-18 03:29:00,
2013-01-17 22:34:00,37.4,30.9,30.27,North,0,0.2,3.4,77,0.00,,,0.35,WUHU216HW,2013-01-18 03:34:00,
2013-01-17 22:39:00,37.3,30.7,30.27,North,0,0.4,2.7,77,0.00,,,0.35,WUHU216HW,2013-01-18 03:39:00,
2013-01-17 22:44:00,37.1,30.9,30.27,NW,315,1.1,2.0,78,0.00,,,0.35,WUHU216HW,2013-01-18 03:44:00,
2013-01-17 22:49:00,36.9,30.7,30.28,North,0,0.9,2.0,78,0.00,,,0.35,WUHU216HW,2013-01-18 03:49:00,
2013-01-17 22:54:00,36.5,30.3,30.28,NNW,338,0.4,1.1,78,0.00,,,0.35,WUHU216HW,2013-01-18 03:54:00,
2013-01-17 22:59:00,36.4,30.2,30.28,NNW,338,1.1,1.8,78,0.00,,,0.35,WUHU216HW,2013-01-18 03:59:00,
2013-01-17 23:04:00,36.0,30.1,30.29,NNW,338,0.4,1.8,79,0.00,,,0.35,WUHU216HW,2013-01-18 04:04:00,
2013-01-17 23:09:00,35.8,29.9,30.29,NNW,338,0.4,1.6,79,0.00,,,0.35,WUHU216HW,2013-01-18 04:09:00,
2013-01-17 23:14:00,35.6,30.1,30.29,NW,315,0.0,1.6,80,0.00,,,0.35,WUHU216HW,2013-01-18 04:14:00,
2013-01-17 23:19:00,35.6,30.1,30.29,NW,315,0.0,0.7,80,0.00,,,0.35,WUHU216HW,2013-01-18 04:19:00,
2013-01-17 23:24:00,35.5,29.9,30.29,NW,315,0.0,0.4,80,0.00,,,0.35,WUHU216HW,2013-01-18 04:24:00,
2013-01-17 23:29:00,35.3,29.7,30.29,West,270,1.8,1.8,80,0.00,,,0.35,WUHU216HW,2013-01-18 04:29:00,
2013-01-17 23:34:00,35.1,29.5,30.30,NW,315,0.7,2.2,80,0.00,,,0.35,WUHU216HW,2013-01-18 04:34:00,
2013-01-17 23:39:00,34.9,29.3,30.30,NW,315,0.4,2.2,80,0.00,,,0.35,WUHU216HW,2013-01-18 04:39:00,
2013-01-17 23:44:00,34.9,29.3,30.30,NNW,338,0.0,1.3,80,0.00,,,0.35,WUHU216HW,2013-01-18 04:44:00,
2013-01-17 23:49:00,34.7,29.2,30.31,WNW,293,0.2,1.3,80,0.00,,,0.35,WUHU216HW,2013-01-18 04:49:00,
2013-01-17 23:54:00,34.6,29.0,30.31,NNW,338,0.7,1.3,80,0.00,,,0.35,WUHU216HW,2013-01-18 04:54:00,
2013-01-17 23:59:00,34.6,29.0,30.31,NNW,338,0.0,1.1,80,0.00,,,0.35,WUHU216HW,2013-01-18 04:59:00,